* Astronomy

Members Login
Post Info TOPIC: Kosmos 1367


L

Posts: 131433
Date:
Molniya-M SL-6 Stage 3 Rocket Body
Permalink  
 


Bright light in southern skies thought to be satellite
Queries about a bright light in the southern skies last night have been coming into the Mount St John Observatory.

Read more

Kosmos1367RBB.gif
Expand (98kb, 854 x 558)

__________________


L

Posts: 131433
Date:
RE: Kosmos 1367
Permalink  
 


The Molniya-M SL-6 Stage 3 Rocket Body re-entered the Earths atmosphere on the 18th January 2009 @ 09:05 GMT  ± 1 minute.

Inclination    62°
Revolution Number    22839
Predicted Location    : 47° S, 172° E

__________________


L

Posts: 131433
Date:
Permalink  
 

A Molniya-M SL-6 Stage 3 Rocket Body that was launched from the Plesetsk Cosmodrome on the 20th May 1982, for the Kosmos 1367 (US-K #26) mission is predicted to re-enter the earths atmosphere on the 18th January 2009 @ 08:16 GMT ± 8 hours.

TLE Data
SL-6 RB(2)
1 13215U 82045D 09017.78779440 .12771555 89635-5 12763-3 0 8398
2 13215 062.0458 214.8160 0164711 271.6682 086.5911 16.22111620228300
1 13215U 82045D 09017.78805012 .12276624 89629-5 11785-3 0 8385
2 13215 062.0454 214.8141 0167084 272.0667 087.6286 16.21947301228308
1 13215U 82045D 09017.54079840 .08834283 88150-5 10423-3 0 8372
2 13215 062.0498 215.8571 0190257 272.4080 086.0866 16.15055944228263
1 13215U 82045D 09017.35481285 .08361845 87384-5 10181-3 0 8368
2 13215 062.0400 216.6070 0205702 271.8757 086.0228 16.11340626228234
1 13215U 82045D 09017.10626359 .08201224 86501-5 10866-3 0 8346
2 13215 062.0463 217.6220 0221420 271.7456 086.0919 16.07091165228199

Inclination:                62.1°
Revolution Number:    22840
Predicted  Location:    19.6° N, 342.1° E

__________________
Page 1 of 1  sorted by
Quick Reply

Please log in to post quick replies.



Create your own FREE Forum
Report Abuse
Powered by ActiveBoard